Location: Katherine
(14.4670°S, 132.2670°E)
Time: 01:58:23
(UTC+09:30)

ISS - Pass Details

Date: 17 June 2018
Orbit: 402 x 406 km, 51.6° (Epoch: 22 June)

Event Time Altitude Azimuth Distance (km) Brightness Sun altitude
Rises 06:23:10 0° 187° (S) 2,334 -0.3 -9.9°
Reaches altitude 10° 06:26:54 10° 144° (SE) 1,468 -0.8 -9.0°
Maximum altitude 06:27:32 10° 133° (SE) 1,443 -0.7 -8.9°
Drops below altitude 10° 06:28:09 10° 122° (ESE) 1,466 -0.5 -8.7°
Sets 06:31:52 0° 78° (ENE) 2,319 2.1 -7.9°
